Hourly Data Report for October 09, 2014

All times are specified in Local Standard Time (LST). Add 1 hour to adjust for Daylight Saving Time where and when it is observed.

IQALUIT CLIMATE
NUNAVUT

63°44'50.000" N
68°32'40.000" W
33.50 m
2402592
71321
XFB

Download Data

Hourly Data (October 2014)
Hourly Data Report for October 9, 2014
Temp Definition
°C
Dew Point Temp Definition
°C
Rel Hum Definition
%
Wind Dir Definition
10's deg

Wind Spd Definition
km/h
Visibility Definition
km
Stn Press Definition
kPa
Hmdx Definition


Wind Chill Definition


Weather Definition


TIME
00:00 0.2 -1.0 92 13 4   101.19     LegendNANA
01:00 0.3 -1.2 90 9 8   101.17     LegendNANA
02:00 0.4 -1.3 88 9 7   101.14     LegendNANA
03:00 0.4 -1.4 88 8 7   101.10     LegendNANA
04:00 0.5 -1.5 87 7 6   101.07     LegendNANA
05:00 0.4 -1.4 88 10 3   101.04     LegendNANA
06:00 0.6 -1.5 86 0 1   101.01     LegendNANA
07:00 0.5 -1.3 88 7 9   101.00     LegendNANA
08:00 0.7 -1.4 86 9 7   100.96     LegendNANA
09:00 0.7 -1.4 86 9 9   100.89     LegendNANA
10:00 0.9 -1.3 86 13 5   100.84     LegendNANA
11:00 1.1 -1.7 81 2 1   100.77     LegendNANA
12:00 1.4 -2.0 78 17 3   100.68     LegendNANA
13:00 1.4 -1.3 82 26 5   100.61     LegendNANA
14:00 1.3 -1.3 83 26 5   100.53     LegendNANA
15:00 1.3 -1.0 85 27 5   100.46     LegendNANA
16:00 1.3 -1.3 83 32 3   100.38     LegendNANA
17:00 1.3 -1.9 79 5 8   100.28     LegendNANA
18:00 1.0 -2.5 77 6 11   100.19     LegendNANA
19:00 0.8 -3.1 75 6 16   100.05     LegendNANA
20:00 1.0 -2.9 75 6 15   99.92     LegendNANA
21:00 1.4 -2.5 75 6 16   99.78     LegendNANA
22:00 0.8 -1.7 83 6 15   99.63     LegendNANA
23:00 0.4 -1.2 90 6 14   99.50     LegendNANA

Notes on Data Quality.

Legend

  • E = Estimated
  • M = Missing
  • NA = Not Available
  • ‡ = Partner data that is not subject to review by the National Climate Archives
Date modified: